Weather History for Zephyrhills, FL

Change the Weather History Date:

Wednesday, May 1, 2013

  Actual Average (KPCM) Record (KPCM)
Temperature  
Mean Temperature 70 °F -  
Max Temperature 75 °F 86 °F 94 °F (1975)
Min Temperature 64 °F 60 °F 43 °F (1992)
Cooling Degree Days 4    
Growing Degree Days 20 (Base 50)    
Moisture  
Dew Point 68 °F    
Average Humidity 97    
Maximum Humidity 100    
Minimum Humidity 73    
Precipitation  
Precipitation 0.19 in - - ()
Sea Level Pressure  
Sea Level Pressure 30.00 in    
Wind  
Wind Speed 4 mph (East)    
Max Wind Speed 12 mph    
Max Gust Speed -    
Visibility 9 miles    
Events Rain    
Averages and records for this station are not official NWS values.
T = Trace of Precipitation, MM = Missing Value Source: NWS Daily Summary

Daily Weather History Graph

Daily Weather History Graph

Search for Another Location

Airport:

Trip Planner

Search our weather history database for the weather conditions in past years. The results will help you decide how hot, cold, wet, or windy it might be!

Date:

Astronomy

May. 01, 2013 Rise Set
Actual Time 6:48 AM EDT 8:03 PM EDT
Civil Twilight 6:23 AM EDT 8:28 PM EDT
Nautical Twilight 5:53 AM EDT 8:58 PM EDT
Astronomical Twilight 5:23 AM EDT 9:28 PM EDT
Moon 1:10 AM EDT (5/1) 12:25 PM EDT (5/1)
Length of Visible Light 14h 05m
Length of Day
13h 15m
Waning Gibbous, 59% of the Moon is Illuminated
May 1
Waning Gibbous
May 2
Last Quarter
May 9
New
May 18
First Quarter
May 25
Full

Hourly Weather History & Observations

Time (EDT) Temp. Dew Point Humidity Pressure Visibility Wind Dir Wind Speed Gust Speed Precip Events Conditions
12:15 AM 66.2 °F 66.2 °F 100% 30.01 in 10.0 mi Calm Calm - N/A   Clear
12:35 AM 66.2 °F 66.2 °F 100% 30.01 in 10.0 mi Calm Calm - N/A   Clear
12:55 AM 64.4 °F 64.4 °F 100% 30.01 in 10.0 mi Calm Calm - N/A   Clear
1:15 AM 64.4 °F 64.4 °F 100% 30.00 in 10.0 mi ENE 4.6 mph - N/A   Clear
1:35 AM 64.4 °F 64.4 °F 100% 30.00 in 10.0 mi ENE 4.6 mph - N/A   Clear
1:55 AM 64.4 °F 64.4 °F 100% 30.00 in 10.0 mi Calm Calm - N/A   Clear
2:15 AM 64.4 °F 64.4 °F 100% 29.99 in 10.0 mi NE 3.5 mph - N/A   Clear
2:35 AM 64.4 °F 64.4 °F 100% 29.98 in 10.0 mi Calm Calm - N/A   Clear
2:55 AM 64.4 °F 64.4 °F 100% 29.97 in 10.0 mi NE 4.6 mph - N/A   Mostly Cloudy
3:15 AM 64.4 °F 64.4 °F 100% 29.97 in 1.8 mi ENE 4.6 mph - N/A   Overcast
3:35 AM 66.2 °F 66.2 °F 100% 29.97 in 1.0 mi East 3.5 mph - N/A   Overcast
3:55 AM 66.2 °F 66.2 °F 100% 29.97 in 1.5 mi East 3.5 mph - N/A   Overcast
4:15 AM 66.2 °F 66.2 °F 100% 29.97 in 2.5 mi ENE 3.5 mph - N/A   Overcast
4:35 AM 66.2 °F 66.2 °F 100% 29.97 in 4.0 mi ENE 3.5 mph - N/A   Overcast
4:55 AM 66.2 °F 66.2 °F 100% 29.97 in 5.0 mi ENE 3.5 mph - N/A   Mostly Cloudy
5:15 AM 66.2 °F 66.2 °F 100% 29.97 in 5.0 mi ENE 4.6 mph - N/A   Scattered Clouds
5:35 AM 66.2 °F 66.2 °F 100% 29.97 in 5.0 mi ENE 4.6 mph - N/A   Clear
5:55 AM 68.0 °F 68.0 °F 100% 29.97 in 5.0 mi East 6.9 mph - N/A   Clear
6:15 AM 68.0 °F 68.0 °F 100% 29.97 in 7.0 mi ENE 5.8 mph - N/A   Clear
6:35 AM 68.0 °F 68.0 °F 100% 29.98 in 7.0 mi East 4.6 mph - N/A   Clear
7:15 AM 68.0 °F 68.0 °F 100% 30.00 in 7.0 mi East 3.5 mph - N/A   Clear
7:35 AM 68.0 °F 68.0 °F 100% 30.00 in 10.0 mi East 5.8 mph - N/A   Clear
8:15 AM 68.0 °F 68.0 °F 100% 30.01 in 7.0 mi East 5.8 mph - N/A   Overcast
8:35 AM 68.0 °F 68.0 °F 100% 30.01 in 10.0 mi East 3.5 mph - N/A   Mostly Cloudy
8:55 AM 69.8 °F 69.8 °F 100% 30.01 in 10.0 mi East 3.5 mph - N/A   Scattered Clouds
9:15 AM 69.8 °F 69.8 °F 100% 30.02 in 10.0 mi ENE 3.5 mph - N/A   Scattered Clouds
9:35 AM 69.8 °F 69.8 °F 100% 30.02 in 10.0 mi East 3.5 mph - N/A   Scattered Clouds
9:55 AM 69.8 °F 69.8 °F 100% 30.02 in 10.0 mi East 3.5 mph - N/A   Scattered Clouds
10:15 AM 69.8 °F 69.8 °F 100% 30.03 in 10.0 mi East 3.5 mph - N/A   Clear
10:35 AM 71.6 °F 71.6 °F 100% 30.04 in 10.0 mi East 3.5 mph - N/A   Clear
10:55 AM 71.6 °F 71.6 °F 100% 30.05 in 10.0 mi East 5.8 mph - N/A   Clear
11:15 AM 71.6 °F 71.6 °F 100% 30.05 in 10.0 mi East 5.8 mph - N/A   Mostly Cloudy
11:35 AM 71.6 °F 71.6 °F 100% 30.05 in 10.0 mi East 5.8 mph - N/A   Overcast
12:15 PM 73.4 °F 73.4 °F 100% 30.04 in 10.0 mi East 8.1 mph - N/A   Overcast
12:35 PM 73.4 °F 73.4 °F 100% 30.03 in 10.0 mi ENE 8.1 mph - N/A   Overcast
1:15 PM 75.2 °F 73.4 °F 94% 30.02 in 10.0 mi East 9.2 mph - N/A   Light Drizzle
1:35 PM 75.2 °F 71.6 °F 89% 30.02 in 10.0 mi East 6.9 mph - N/A   Mostly Cloudy
1:55 PM 75.2 °F 71.6 °F 89% 30.01 in 10.0 mi East 9.2 mph - N/A   Overcast
2:15 PM 75.2 °F 69.8 °F 83% 30.00 in 10.0 mi East 8.1 mph - N/A   Mostly Cloudy
2:35 PM 75.2 °F 68.0 °F 78% 30.00 in 10.0 mi East 8.1 mph - N/A   Scattered Clouds
2:55 PM 75.2 °F 66.2 °F 73% 29.99 in 10.0 mi ENE 8.1 mph - N/A   Clear
3:15 PM 73.4 °F 66.2 °F 78% 29.99 in 10.0 mi East 6.9 mph - N/A   Scattered Clouds
3:35 PM 73.4 °F 68.0 °F 83% 29.99 in 10.0 mi East 8.1 mph - N/A Rain Light Rain
3:55 PM 73.4 °F 68.0 °F 83% 29.98 in 10.0 mi East 5.8 mph - N/A   Mostly Cloudy
4:15 PM 73.4 °F 68.0 °F 83% 29.97 in 10.0 mi ENE 6.9 mph - N/A   Light Drizzle
4:35 PM 73.4 °F 68.0 °F 83% 29.98 in 10.0 mi East 3.5 mph - N/A   Light Drizzle
4:55 PM 71.6 °F 69.8 °F 94% 29.99 in 10.0 mi East 4.6 mph - N/A Rain Light Rain
5:15 PM 71.6 °F 71.6 °F 100% 29.98 in 10.0 mi East 5.8 mph - 0.02 in Rain Light Rain
5:35 PM 71.6 °F 71.6 °F 100% 29.98 in 10.0 mi ENE 10.4 mph - 0.04 in Rain Light Rain
5:55 PM 69.8 °F 69.8 °F 100% 29.99 in 10.0 mi ESE 6.9 mph - 0.06 in Rain Light Rain
6:15 PM 69.8 °F 69.8 °F 100% 29.99 in 10.0 mi ESE 6.9 mph - 0.02 in Rain Light Rain
6:35 PM 68.0 °F 68.0 °F 100% 30.00 in 10.0 mi SE 11.5 mph - 0.04 in Rain Light Rain
6:55 PM 68.0 °F 68.0 °F 100% 29.99 in 10.0 mi East 6.9 mph - 0.06 in Rain Rain
7:15 PM 66.2 °F 66.2 °F 100% 29.98 in 10.0 mi East 5.8 mph - 0.01 in Rain Light Rain
7:35 PM 66.2 °F 66.2 °F 100% 29.98 in 10.0 mi East 5.8 mph - 0.02 in Rain Rain
7:55 PM 66.2 °F 66.2 °F 100% 29.98 in 10.0 mi East 5.8 mph - 0.03 in   Drizzle
8:15 PM 66.2 °F 66.2 °F 100% 30.00 in 10.0 mi East 3.5 mph - N/A   Light Drizzle
8:35 PM 66.2 °F 66.2 °F 100% 30.00 in 10.0 mi Calm Calm - N/A   Drizzle
8:55 PM 66.2 °F 66.2 °F 100% 30.00 in 10.0 mi Calm Calm - 0.01 in   Drizzle
9:15 PM 66.2 °F 66.2 °F 100% 30.00 in 10.0 mi Calm Calm - N/A Rain Rain
9:35 PM 66.2 °F 66.2 °F 100% 30.00 in 10.0 mi East 3.5 mph - 0.02 in Rain Light Rain
9:55 PM 68.0 °F 68.0 °F 100% 30.00 in 7.0 mi Calm Calm - 0.03 in Rain Light Rain
10:35 PM 68.0 °F 68.0 °F 100% 30.00 in 7.0 mi NNE 3.5 mph - N/A   Light Drizzle
10:55 PM 68.0 °F 68.0 °F 100% 30.00 in 7.0 mi NE 3.5 mph - N/A   Mostly Cloudy
11:15 PM 68.0 °F 68.0 °F 100% 30.00 in 7.0 mi NNE 3.5 mph - N/A   Mostly Cloudy
11:35 PM 66.2 °F 66.2 °F 100% 30.00 in 10.0 mi ENE 5.8 mph - N/A   Scattered Clouds
11:55 PM 66.2 °F 66.2 °F 100% 30.00 in 10.0 mi NE 4.6 mph - N/A   Mostly Cloudy